Penticton, British Columbia

12:22 AM PDT on July 26, 2017 (GMT -0700)
Penticton

Weather History for CYYF - October, 2013

Change the Weather History Date:

Sunday, October 20, 2013

  Actual Average Record
Temperature  
Mean Temperature 45 °F -  
Max Temperature 56 °F 49 °F 61 °F (2015)
Min Temperature 34 °F 33 °F 24 °F (1996)
Degree Days  
Heating Degree Days 20    
Moisture  
Dew Point 41 °F    
Average Humidity 82    
Maximum Humidity 93    
Minimum Humidity 62    
Precipitation  
Precipitation 0.00 in 0.03 in - ()
Sea Level Pressure  
Sea Level Pressure 30.21 in    
Wind  
Wind Speed 5 mph ()    
Max Wind Speed 10 mph    
Max Gust Speed -    
Visibility 14.3 miles    
Events      
Averages and records for this station are not official NWS values.
T = Trace of Precipitation, MM = Missing Value Source: Averaged Metar Reports

Daily Weather History Graph

Daily Weather History Graph

Search for Another Location

Airport or City:

Trip Planner

Search our weather history database for the weather conditions in past years. The results will help you decide how hot, cold, wet, or windy it might be!

Date:

Astronomy

Oct. 20, 2013 Rise Set
Actual Time 7:28 AM PDT 5:57 PM PDT
Civil Twilight 6:55 AM PDT 6:29 PM PDT
Nautical Twilight 6:18 AM PDT 7:07 PM PDT
Astronomical Twilight 5:41 AM PDT 7:43 PM PDT
Moon 6:58 PM PDT (10/20) 9:20 AM PDT (10/20)
Length of Visible Light 11h 34m
Length of Day
10h 29m
Waning Gibbous, 97% of the Moon is Illuminated
Oct 20
Waning Gibbous
Oct 26
Last Quarter
Nov 3
New
Nov 9
First Quarter
Nov 17
Full

Hourly Weather History & Observations

Time (PDT) Temp. Windchill Dew Point Humidity Pressure Visibility Wind Dir Wind Speed Gust Speed Precip Events Conditions
12:00 AM 41.0 °F 36.4 °F 37.4 °F 87% 30.21 in 15.0 mi North 6.9 mph - N/A   Scattered Clouds
1:00 AM 39.2 °F 35.9 °F 37.4 °F 93% 30.21 in 15.0 mi NNE 4.6 mph - N/A   Scattered Clouds
2:00 AM 35.6 °F 32.8 °F 33.8 °F 93% 30.22 in 15.0 mi North 3.5 mph - N/A   Scattered Clouds
3:00 AM 37.4 °F 33.8 °F 35.6 °F 93% 30.22 in 15.0 mi NNE 4.6 mph - N/A   Scattered Clouds
4:00 AM 35.6 °F 31.7 °F 33.8 °F 93% 30.22 in 15.0 mi North 4.6 mph - N/A   Scattered Clouds
5:00 AM 37 °F - 35 °F 90% 30.22 in 15 mi North 2.3 mph - -   Mostly Cloudy
5:00 AM 37.4 °F - 35.6 °F 93% 30.22 in 15.0 mi NNE 2.3 mph - N/A   Mostly Cloudy
6:00 AM 41.0 °F 39.0 °F 39.2 °F 93% 30.23 in 15.0 mi NNE 3.5 mph - N/A   Overcast
7:00 AM 42.8 °F 41.1 °F 39.2 °F 87% 30.24 in 10.0 mi NNE 3.5 mph - N/A   Overcast
8:00 AM 44.6 °F 42.2 °F 41.0 °F 87% 30.25 in 10.0 mi North 4.6 mph - N/A   Overcast
9:00 AM 46.4 °F - 42.8 °F 87% 30.25 in 10.0 mi North 2.3 mph - N/A   Overcast
10:00 AM 50.0 °F - 44.6 °F 82% 30.26 in 10.0 mi North 6.9 mph - N/A   Overcast
10:35 AM 50.0 °F - 44.6 °F 82% 30.25 in 15.0 mi North 8.1 mph - N/A   Mostly Cloudy
11:00 AM 50 °F - 44 °F 73% 30.25 in 15 mi North 8.1 mph - -   Partly Cloudy
11:00 AM 50.0 °F - 44.6 °F 82% 30.25 in 15.0 mi NNE 8.1 mph - N/A   Mostly Cloudy
12:00 PM 53.6 °F - 44.6 °F 72% 30.23 in 15.0 mi Variable 2.3 mph - N/A   Mostly Cloudy
1:00 PM 55.4 °F - 44.6 °F 67% 30.20 in 15.0 mi Calm Calm - N/A   Partly Cloudy
2:00 PM 55.4 °F - 44.6 °F 67% 30.19 in 15.0 mi North 10.4 mph - N/A   Partly Cloudy
3:00 PM 55.4 °F - 44.6 °F 67% 30.17 in 15.0 mi North 10.4 mph - N/A   Partly Cloudy
4:00 PM 55.4 °F - 44.6 °F 67% 30.16 in 15.0 mi North 8.1 mph - N/A   Partly Cloudy
5:00 PM 53 °F - 44 °F 62% 30.16 in 15 mi North 6.9 mph - -   Clear
5:00 PM 53.6 °F - 44.6 °F 72% 30.16 in 15.0 mi North 6.9 mph - N/A   Partly Cloudy
6:00 PM 50.0 °F - 44.6 °F 82% 30.16 in 15.0 mi NNW 5.8 mph - N/A   Partly Cloudy
7:00 PM 46.4 °F 44.3 °F 41.0 °F 81% 30.18 in 15.0 mi North 4.6 mph - N/A   Clear
8:00 PM 44.6 °F 41.4 °F 41.0 °F 87% 30.19 in 15.0 mi North 5.8 mph - N/A   Clear
9:00 PM 44.6 °F 41.4 °F 41.0 °F 87% 30.20 in 15.0 mi NNE 5.8 mph - N/A   Clear
10:00 PM 42.8 °F 38.6 °F 41.0 °F 93% 30.21 in 15.0 mi North 6.9 mph - N/A   Clear
11:00 PM 44 °F - 41 °F 83% 30.22 in 15 mi North 9.2 mph - -  
11:00 PM 44.6 °F 39.7 °F 41.0 °F 87% 30.22 in 15.0 mi North 9.2 mph - N/A   Clear